SCP
0 0 1 1 1 1 0 0 0 0 0 0 0 0 0 0 0 0 0 0 0 0 0 0 0 0 0 0 0 0 0 0 0 0 1 1 1 0
0 0 0 1 1 0 0 0 0 0 0 0 0 0 0 0 0 0 0 0 0 0 0 0 0 0 0 0 0 0 0 0 0 0 0 1 0 0
0 0 0 0 0 0 0 0 0 0 0 0 0 0 0 0 0 0 0 0 0 0 0 0 0 0 0 0 0 0 0 0 0 0 0 0 0 0
0 0 0 0 0 0 0 0 0 0 0 0 0 0 0 0 0 0 0 0 0 0 0 0 0 0 0 0 0 0 0 0 0 0 0 0 0 0
0 0 0 0 0 0 0 0 0 0 0 0 0 0 0 0 0 0 0 0 0 0 0 0 0 0 0 0 0 0 0 0 0 0 0 0 0 0
0 0 0 0 0 0 0 0 0 0 0 0 0 0 0 0 0 0 0 0 0 0 0 0 0 0 0 0 0 0 0 0 0 0 0 0 0 0
0 0 0 0 0 0 0 0 0 0 0 0 0 0 0 0 0 0 0 0 0 0 0 0 0 0 0 0 0 0 0 0 0 0 0 0 0 0
0 0 0 0 0 0 0 0 0 0 0 0 0 0 0 0 0 0 0 0 0 0 0 0 0 0 0 0 0 0 0 0 0 0 0 0 0 0
0 0 0 0 0 0 0 0 0 0 0 0 0 0 0 0 0 0 0 0 0 0 0 0 0 0 0 0 0 0 0 0 0 0 0 0 0 0
0 0 0 0 0 0 0 0 0 0 0 0 0 0 0 0 0 0 0 0 0 0 0 0 0 0 0 0 0 0 0 0 0 0 0 0 0 0
0 0 0 0 0 0 0 0 0 0 0 0 0 0 0 0 0 0 0 0 0 0 0 0 0 0 0 0 0 0 0 0 0 0 0 0 0 0
0 0 0 0 0 0 0 0 0 0 0 0 0 0 0 0 0 0 0 0 0 0 0 0 0 0 0 0 0 0 0 0 0 0 0 0 0 0
0 0 0 0 0 0 0 0 0 0 0 0 0 0 0 0 0 0 0 0 0 0 0 0 0 0 0 0 0 0 0 0 0 0 0 0 0 0
0 0 0 0 0 0 0 0 0 0 0 0 0 0 0 0 0 0 0 0 0 0 0 0 0 0 0 0 0 0 0 0 0 0 0 0 0 0
0 0 0 0 0 0 0 0 0 0 0 0 0 0 0 0 0 0 0 0 0 0 0 0 0 0 0 0 0 0 0 0 0 0 0 0 0 0
0 0 0 0 0 0 0 0 0 0 0 0 0 0 0 0 0 0 0 0 0 0 0 0 0 0 0 0 0 0 0 0 0 0 0 0 0 0
0 0 0 0 0 0 0 0 0 0 0 0 0 0 0 0 0 0 0 0 0 0 0 0 0 0 0 0 0 0 0 0 0 0 0 0 0 0
0 0 0 0 0 0 0 0 0 0 0 0 0 0 0 0 0 0 0 0 0 0 0 0 0 0 0 0 0 0 0 0 0 0 0 0 0 0
0 0 0 0 0 0 0 0 0 0 0 0 0 0 0 0 0 0 0 0 0 0 0 0 0 0 0 0 0 0 0 0 0 0 0 0 0 0
0 0 0 0 0 0 0 0 0 0 0 0 0 0 0 0 0 0 0 0 0 0 0 0 0 0 0 0 0 0 0 0 0 0 0 0 0 0
0 0 0 0 0 0 0 0 0 0 0 0 0 0 0 0 0 0 0 0 0 0 0 0 0 0 0 0 0 0 0 0 0 0 0 0 0 0
0 0 0 0 0 0 0 0 0 0 0 0 0 0 0 0 0 0 0 0 0 0 0 0 0 0 0 0 0 0 0 0 0 0 0 0 0 0
0 0 0 0 0 0 0 0 0 0 0 0 0 0 0 0 0 0 0 0 0 0 0 0 0 0 0 0 0 0 0 0 0 0 0 0 0 0
Wind_Speed
5 5 5 4 3 3 3 3 4 4 5 4 3 3 3 3 4 3 3 5 7 8 8 8 9 9 9 9 10 11 11 12 12 12 12 13 13 13
4 5 5 4 4 4 4 4 4 5 5 3 3 2 2 3 4 3 4 6 8 9 9 9 9 9 10 10 11 11 12 12 12 13 12 13 13 13
4 5 6 5 4 4 4 4 5 4 6 4 2 2 3 3 3 3 3 4 4 8 10 10 10 10 10 11 11 12 12 12 13 13 13 13 13 14
5 5 6 4 5 4 4 5 5 5 5 6 3 2 3 3 3 3 3 3 4 7 10 10 10 11 10 11 11 12 12 12 12 12 13 13 13 14
4 5 5 4 6 4 5 5 4 4 4 5 4 2 2 2 2 3 3 3 4 5 8 9 10 11 11 11 11 11 11 11 12 12 13 13 13 14
4 4 5 5 6 5 5 5 4 4 4 4 4 3 2 2 2 3 3 3 3 3 5 6 8 10 11 12 11 11 11 11 12 12 12 12 13 14
4 4 4 4 5 5 5 4 4 4 3 4 4 3 3 2 3 2 4 3 3 2 2 3 4 4 6 9 10 11 12 12 12 12 12 12 13 14
4 4 3 3 4 6 6 5 5 5 5 4 4 5 5 4 3 3 3 3 4 2 2 4 3 5 4 4 9 11 12 12 13 13 13 13 14 14
4 3 3 2 2 3 4 5 5 6 6 5 5 7 5 4 3 4 4 4 5 2 2 5 3 5 4 5 10 11 12 12 13 13 13 13 13 14
3 3 3 3 2 2 2 2 3 4 5 5 5 6 4 3 4 5 5 4 4 2 2 4 3 4 4 4 8 10 11 12 12 13 13 13 13 13
3 3 3 3 4 3 2 3 3 4 4 5 5 5 6 6 3 2 2 2 4 3 2 2 3 3 3 3 5 9 10 11 12 13 13 13 13 12
3 3 3 4 4 4 3 3 4 4 2 2 3 4 4 3 4 2 2 3 3 3 1 1 1 1 3 2 2 3 4 8 11 12 13 13 13 7
3 3 3 5 6 6 5 4 6 4 2 2 2 2 1 2 2 2 2 2 3 3 1 1 1 1 2 4 3 3 3 4 5 6 9 12 13 9
3 3 3 5 6 6 5 5 6 3 2 2 2 2 2 2 2 2 2 2 3 4 3 2 2 2 2 4 5 3 3 4 4 5 4 9 10 12
3 4 5 6 5 4 4 5 3 2 2 2 3 3 3 2 2 1 2 2 2 3 3 3 3 3 3 4 5 4 5 4 4 4 4 4 5 5
3 3 4 5 4 3 2 2 2 2 2 3 3 3 2 1 2 2 2 2 2 3 3 3 4 4 4 6 6 6 5 4 4 4 5 5 5 5
3 2 2 2 2 2 2 2 1 2 2 3 3 3 3 3 3 2 2 2 3 4 3 2 3 3 5 5 6 6 6 6 5 5 5 6 6 5
3 2 2 2 3 3 3 2 2 2 3 3 3 3 3 3 3 2 2 3 4 4 4 3 2 2 3 4 7 7 6 6 5 5 5 6 8 6
2 3 3 3 3 3 3 3 3 3 2 3 3 3 3 3 3 3 3 3 4 4 4 3 2 2 4 6 5 6 5 5 5 5 5 6 8 7
2 3 4 4 3 3 3 3 3 3 3 3 3 3 3 4 4 4 4 4 5 4 4 3 4 4 5 6 5 5 8 6 5 6 6 6 7 10
3 4 4 4 3 3 3 3 3 3 3 3 3 4 3 4 4 4 4 5 5 5 6 6 5 5 3 2 4 5 5 8 9 7 6 6 7 7
4 4 4 4 4 3 3 3 4 4 4 4 4 4 4 4 5 5 5 5 5 5 6 5 3 2 3 4 7 7 7 6 9 13 12 10 6 6
4 4 4 4 4 4 4 4 5 5 4 4 4 4 4 4 4 4 5 5 5 5 5 4 3 3 4 5 6 7 8 7 6 6 7 11 14 15
Wind_Direction
226 226 226 227 223 224 220 210 210 246 257 239 229 222 215 209 224 217 223 243 254 261 264 268 270 272 274 276 279 282 283 285 289 292 291 288 287 287
227 227 230 226 223 222 221 224 220 226 251 240 229 233 224 233 235 222 229 252 255 258 260 263 267 269 270 272 276 280 281 283 287 289 288 289 288 287
236 234 237 226 226 226 223 224 225 221 246 264 245 245 223 238 249 231 233 233 245 256 261 263 265 267 269 272 275 278 280 283 286 285 286 287 286 286
242 236 241 234 232 230 226 230 231 224 232 254 260 248 247 245 242 240 250 252 244 257 261 266 269 269 271 273 276 278 279 280 281 283 284 285 287 288
249 242 244 236 238 234 229 231 233 234 229 241 259 261 263 261 261 267 258 255 256 258 259 263 267 270 272 273 275 277 277 278 280 282 284 285 285 287
256 251 244 237 240 235 234 233 230 230 229 235 250 263 264 263 242 262 274 258 260 263 260 260 265 269 269 272 274 275 275 276 278 282 284 284 283 284
263 255 251 253 254 245 238 229 223 227 234 238 249 261 261 255 246 248 262 273 257 247 259 258 261 260 260 266 270 273 273 274 276 280 282 283 284 283
266 268 265 257 264 261 261 251 231 223 231 237 248 251 254 251 250 250 262 276 273 247 243 264 248 258 258 250 267 269 269 271 274 276 278 280 281 281
271 278 283 287 271 272 272 270 257 246 234 229 240 248 256 251 244 250 248 251 257 258 251 270 250 258 264 265 268 268 271 273 276 278 278 279 280 281
273 269 271 283 281 275 275 275 266 260 254 242 242 253 259 260 243 246 249 262 277 269 226 264 268 267 278 269 266 268 275 279 280 279 279 281 284 284
288 286 277 274 281 276 261 262 272 275 275 260 260 266 272 274 266 259 256 259 272 259 212 245 273 286 283 270 267 274 279 283 285 285 284 286 287 287
296 291 283 278 279 268 249 246 257 267 277 282 274 279 276 272 265 240 233 242 266 271 227 230 272 319 301 279 280 294 290 290 293 293 291 290 290 288
292 295 291 287 281 275 265 251 257 270 266 263 267 273 277 267 258 255 241 234 240 251 247 195 260 265 262 291 296 284 280 290 295 292 294 294 290 285
285 294 297 293 286 282 274 266 272 272 260 254 260 265 265 263 265 260 252 248 248 253 243 210 230 239 262 281 284 293 296 290 285 286 286 292 293 291
288 292 299 297 294 286 277 277 273 252 242 243 250 257 259 266 274 273 275 271 277 268 251 245 246 253 245 255 270 282 294 290 278 281 289 286 283 287
293 298 296 295 290 287 288 281 266 243 238 247 258 264 265 260 259 257 263 270 273 274 256 243 243 244 254 259 262 273 274 280 292 293 293 288 284 277
295 299 301 300 287 283 278 267 255 246 248 253 257 264 262 256 255 250 250 252 253 270 279 272 252 247 251 257 265 266 271 274 279 287 289 288 282 276
290 265 268 268 265 266 265 264 252 244 246 250 250 250 254 255 258 250 244 243 255 264 269 274 284 295 288 266 241 260 267 270 277 276 272 280 285 282
271 264 259 257 255 255 256 254 252 248 242 244 251 251 252 253 255 256 250 252 258 261 263 260 249 249 274 284 277 244 261 276 282 278 269 266 276 283
260 264 266 267 260 254 254 255 253 246 238 241 245 248 247 248 250 252 251 250 258 263 266 256 241 235 243 266 278 278 263 265 271 276 279 275 272 279
265 267 270 274 274 266 261 258 252 247 243 239 243 246 245 247 251 251 253 257 255 256 260 262 256 250 250 265 274 275 272 268 270 270 277 282 287 286
266 268 272 272 272 267 265 261 256 252 244 239 240 241 240 241 248 250 249 253 254 255 260 267 269 254 232 242 262 274 284 286 282 282 278 268 269 271
267 268 269 271 272 267 258 256 256 256 249 241 240 239 237 240 245 248 252 252 256 260 265 268 266 251 247 247 260 270 277 282 286 287 281 279 277 276